Overview Statistics Trail Chart Weather Telemetry Raw packets
 

This is the latest recevied weather packets stored in our database for station/object OK1FET-4. If no packets are shown the sender has not sent any weather packets the latest 10 day(s).

<< 11 12 13 14 15 16 17 >>
Time Temp. Humidity Pressure Rain* Wind** Luminosity Snow
1788576704 15.56° C 77% 1018.3 hPa - - - -
1788576403 15.56° C 78% 1018.2 hPa - - - -
1788576135 15.56° C 79% 1018.2 hPa - - - -
1788575802 16.11° C 77% 1017.8 hPa - - - -
1788575502 15.56° C 76% 1017.1 hPa - - - -
1788575201 15.56° C 76% 1017.2 hPa - - - -
1788574901 15.56° C 76% 1017 hPa - - - -
1788574601 16.11° C 74% 1017 hPa - - - -
1788574304 15.56° C 74% 1017 hPa - - - -
1788574000 15.56° C 73% 1017.2 hPa - - - -
1788573699 16.11° C 72% 1017 hPa - - - -
1788573399 16.11° C 70% 1016.6 hPa - - - -
1788573098 16.11° C 70% 1016.9 hPa - - - -
1788572798 16.11° C 70% 1017.2 hPa - - - -
1788572497 16.11° C 69% 1017.1 hPa - - - -
1788572197 17.22° C 66% 1016.5 hPa - - - -
1788571896 17.78° C 64% 1016.7 hPa - - - -
1788571595 17.22° C 65% 1016.4 hPa - - - -
1788571295 17.78° C 65% 1016.3 hPa - - - -
1788570994 17.78° C 65% 1016.5 hPa - - - -
1788570693 17.78° C 66% 1016.4 hPa - - - -
1788570393 17.78° C 64% 1016.5 hPa - - - -
1788570092 17.78° C 63% 1016.5 hPa - - - -
1788569791 17.78° C 63% 1016.5 hPa - - - -
1788569491 18.33° C 63% 1016.5 hPa - - - -

* Rain since midnight (hover to see other rain measurements)
** Current wind speed in m/s (hover to see current wind gust speed)